Change the Weather History Date:

Tuesday, September 3, 2013

  Actual Average (KMCB) Record (KMCB)
Temperature  
Mean Temperature 82 °F -  
Max Temperature 93 °F 89 °F 102 °F (2000)
Min Temperature 71 °F 68 °F 56 °F (1952)
Cooling Degree Days 17    
Growing Degree Days 32 (Base 50)    
Moisture  
Dew Point 74 °F    
Average Humidity 81    
Maximum Humidity 100    
Minimum Humidity 49    
Precipitation  
Precipitation 0.41 in - - ()
Sea Level Pressure  
Sea Level Pressure 29.97 in    
Wind  
Wind Speed 1 mph (West)    
Max Wind Speed 9 mph    
Max Gust Speed -    
Visibility 9 miles    
Events Rain , Thunderstorm    
Averages and records for this station are not official NWS values.
T = Trace of Precipitation, MM = Missing Value Source: NWS Daily Summary

Daily Weather History Graph

Daily Weather History Graph

Search for Another Location

Airport or City:

Trip Planner

Search our weather history database for the weather conditions in past years. The results will help you decide how hot, cold, wet, or windy it might be!

Date:

Astronomy

Sep. 03, 2013 Rise Set
Actual Time 6:38 AM CDT 7:22 PM CDT
Civil Twilight 6:13 AM CDT 7:47 PM CDT
Nautical Twilight 5:44 AM CDT 8:16 PM CDT
Astronomical Twilight 5:15 AM CDT 8:45 PM CDT
Moon 4:55 AM CDT (9/3) 6:08 PM CDT (9/3)
Length of Visible Light 13h 33m
Length of Day
12h 43m
Waning Crescent, 3% of the Moon is Illuminated
Sep 3
Waning Crescent
Sep 5
New
Sep 12
First Quarter
Sep 19
Full
Sep 26
Last Quarter

Hourly Weather History & Observations

Time (CDT) Temp. Heat Index Dew Point Humidity Pressure Visibility Wind Dir Wind Speed Gust Speed Precip Events Conditions
12:15 AM 73.4 °F - 73.4 °F 100% 29.95 in 4.0 mi Calm Calm - N/A   Clear
12:35 AM 75.2 °F - 73.4 °F 94% 29.95 in 4.0 mi Calm Calm - N/A   Clear
12:55 AM 73.4 °F - 73.4 °F 100% 29.95 in 3.0 mi Calm Calm - N/A   Clear
1:15 AM 73.4 °F - 73.4 °F 100% 29.95 in 3.0 mi Calm Calm - N/A   Clear
1:35 AM 73.4 °F - 73.4 °F 100% 29.95 in 3.0 mi Calm Calm - N/A   Clear
1:55 AM 75.2 °F - 73.4 °F 94% 29.94 in 5.0 mi Calm Calm - N/A   Clear
2:15 AM 75.2 °F - 73.4 °F 94% 29.94 in 7.0 mi Calm Calm - N/A   Clear
2:35 AM 75.2 °F - 73.4 °F 94% 29.94 in 9.0 mi Calm Calm - N/A   Clear
2:55 AM 75.2 °F - 73.4 °F 94% 29.94 in 10.0 mi Calm Calm - N/A   Clear
3:15 AM 77.0 °F - 73.4 °F 89% 29.94 in 10.0 mi SW 4.6 mph - N/A   Clear
3:35 AM 77.0 °F - 73.4 °F 89% 29.95 in 10.0 mi WSW 5.8 mph - N/A   Clear
3:55 AM 77.0 °F - 73.4 °F 89% 29.95 in 10.0 mi WSW 5.8 mph - N/A   Clear
4:15 AM 77.0 °F - 73.4 °F 89% 29.95 in 10.0 mi WSW 5.8 mph - N/A   Clear
4:35 AM 75.2 °F - 73.4 °F 94% 29.95 in 10.0 mi WSW 5.8 mph - N/A   Clear
4:55 AM 75.2 °F - 73.4 °F 94% 29.96 in 10.0 mi WSW 4.6 mph - N/A   Clear
5:15 AM 75.2 °F - 73.4 °F 94% 29.96 in 10.0 mi Calm Calm - N/A   Clear
5:35 AM 75.2 °F - 73.4 °F 94% 29.96 in 10.0 mi Calm Calm - N/A   Clear
5:55 AM 75.2 °F - 73.4 °F 94% 29.97 in 10.0 mi Calm Calm - N/A   Clear
6:15 AM 75.2 °F - 73.4 °F 94% 29.97 in 9.0 mi Calm Calm - N/A   Clear
6:35 AM 75.2 °F - 73.4 °F 94% 29.97 in 8.0 mi Calm Calm - N/A   Clear
6:55 AM 75.2 °F - 73.4 °F 94% 29.98 in 8.0 mi Calm Calm - N/A   Clear
7:15 AM 75.2 °F - 75.2 °F 100% 29.98 in 9.0 mi Calm Calm - N/A   Clear
7:35 AM 77.0 °F - 75.2 °F 94% 29.99 in 9.0 mi Calm Calm - N/A   Clear
7:55 AM 77.0 °F - 75.2 °F 94% 29.99 in 9.0 mi Calm Calm - N/A   Clear
8:15 AM 78.8 °F - 75.2 °F 89% 29.99 in 10.0 mi Calm Calm - N/A   Clear
8:35 AM 78.8 °F - 75.2 °F 89% 30.00 in 10.0 mi WSW 4.6 mph - N/A   Clear
8:55 AM 80.6 °F 86.2 °F 75.2 °F 84% 30.00 in 9.0 mi WNW 3.5 mph - N/A   Clear
9:15 AM 82.4 °F 89.5 °F 75.2 °F 79% 30.00 in 10.0 mi Calm Calm - N/A   Clear
9:35 AM 84.2 °F 92.3 °F 75.2 °F 74% 30.01 in 10.0 mi Calm Calm - N/A   Clear
9:55 AM 84.2 °F 92.3 °F 75.2 °F 74% 30.01 in 10.0 mi Calm Calm - N/A   Clear
10:15 AM 84.2 °F 92.3 °F 75.2 °F 74% 30.01 in 10.0 mi North 3.5 mph - N/A   Clear
10:35 AM 87.8 °F 97.6 °F 75.2 °F 66% 30.01 in 10.0 mi NNW 3.5 mph - N/A   Clear
10:55 AM 87.8 °F 97.6 °F 75.2 °F 66% 30.01 in 10.0 mi Calm Calm - N/A   Clear
11:15 AM 89.6 °F 99.8 °F 75.2 °F 62% 30.01 in 10.0 mi Calm Calm - N/A   Clear
11:35 AM 89.6 °F 99.8 °F 75.2 °F 62% 30.00 in 9.0 mi Calm Calm - N/A   Clear
11:55 AM 89.6 °F 99.8 °F 75.2 °F 62% 30.00 in 10.0 mi Calm Calm - N/A   Clear
12:15 PM 91.4 °F 100.1 °F 73.4 °F 55% 29.99 in 10.0 mi WNW 5.8 mph - N/A   Clear
12:35 PM 91.4 °F 98.4 °F 71.6 °F 52% 29.98 in 10.0 mi Calm Calm - N/A   Clear
12:55 PM 91.4 °F 100.1 °F 73.4 °F 55% 29.98 in 10.0 mi SW 3.5 mph - N/A   Scattered Clouds
1:15 PM 93.2 °F 100.5 °F 71.6 °F 49% 29.97 in 10.0 mi Calm Calm - N/A   Scattered Clouds
1:35 PM 91.4 °F 98.4 °F 71.6 °F 52% 29.97 in 9.0 mi Calm Calm - N/A   Mostly Cloudy
1:55 PM 80.6 °F 86.2 °F 75.2 °F 84% 29.96 in 1.8 mi ENE 5.8 mph - 0.12 in Rain Rain
2:15 PM 78.8 °F - 71.6 °F 78% 29.96 in 2.0 mi Calm Calm - 0.01 in Thunderstorm Haze
2:35 PM 82.4 °F 89.5 °F 75.2 °F 79% 29.95 in 10.0 mi SSW 6.9 mph - 0.01 in Thunderstorm Scattered Clouds
2:55 PM 82.4 °F 88.2 °F 73.4 °F 74% 29.94 in 9.0 mi West 9.2 mph - 0.01 in Thunderstorm Partly Cloudy
3:15 PM 80.6 °F 84.6 °F 71.6 °F 74% 29.93 in 10.0 mi West 4.6 mph - N/A Thunderstorm Clear
3:35 PM 82.4 °F 88.2 °F 73.4 °F 74% 29.94 in 10.0 mi Calm Calm - N/A Thunderstorm Clear
3:55 PM 87.8 °F 95.6 °F 73.4 °F 62% 29.94 in 10.0 mi Calm Calm - N/A   Clear
4:15 PM 84.2 °F 90.9 °F 73.4 °F 70% 29.94 in 9.0 mi Calm Calm - N/A Thunderstorm Clear
4:35 PM 86.0 °F 93.4 °F 73.4 °F 66% 29.93 in 8.0 mi Calm Calm - N/A Thunderstorm Clear
4:55 PM 87.8 °F 95.6 °F 73.4 °F 62% 29.92 in 10.0 mi Calm Calm - N/A   Clear
5:15 PM 89.6 °F 98.2 °F 73.4 °F 59% 29.91 in 10.0 mi Calm Calm - N/A   Clear
5:35 PM 89.6 °F 98.2 °F 73.4 °F 59% 29.92 in 10.0 mi Calm Calm - N/A   Clear
5:55 PM 89.6 °F 98.2 °F 73.4 °F 59% 29.92 in 10.0 mi Calm Calm - N/A   Clear
6:15 PM 87.8 °F 97.6 °F 75.2 °F 66% 29.94 in 10.0 mi Calm Calm - N/A   Clear
6:35 PM 86.0 °F 95.1 °F 75.2 °F 70% 29.95 in 10.0 mi SE 5.8 mph - N/A   Clear
6:55 PM 84.2 °F 92.3 °F 75.2 °F 74% 29.95 in 10.0 mi South 5.8 mph - N/A   Partly Cloudy
7:15 PM 82.4 °F 89.5 °F 75.2 °F 79% 29.95 in 10.0 mi Calm Calm - N/A   Partly Cloudy
7:35 PM 80.6 °F 86.2 °F 75.2 °F 84% 29.94 in 10.0 mi Calm Calm - N/A Thunderstorm Partly Cloudy
7:55 PM 80.6 °F 86.2 °F 75.2 °F 84% 29.95 in 10.0 mi Calm Calm - N/A Thunderstorm Clear
8:15 PM 78.8 °F - 75.2 °F 89% 29.96 in 10.0 mi North 8.1 mph - N/A   Clear
8:35 PM 80.6 °F 85.4 °F 73.4 °F 79% 29.98 in 10.0 mi NNE 5.8 mph - N/A   Partly Cloudy
8:55 PM 78.8 °F - 73.4 °F 83% 30.01 in 10.0 mi ENE 5.8 mph - N/A   Partly Cloudy
9:15 PM 78.8 °F - 71.6 °F 78% 30.01 in 10.0 mi East 3.5 mph - N/A   Partly Cloudy
9:35 PM 77.0 °F - 73.4 °F 89% 30.02 in 10.0 mi Calm Calm - N/A   Scattered Clouds
9:55 PM 78.8 °F - 73.4 °F 83% 30.04 in 10.0 mi Calm Calm - N/A Thunderstorm Thunderstorm
10:15 PM 77.0 °F - 71.6 °F 83% 30.04 in 5.0 mi North 8.1 mph - 0.01 in Rain , Thunderstorm Heavy Thunderstorms and Rain
10:35 PM 73.4 °F - 69.8 °F 88% 30.03 in 1.2 mi East 5.8 mph - 0.21 in Rain , Thunderstorm Thunderstorms and Rain
10:55 PM 71.6 °F - 69.8 °F 94% 30.01 in 2.0 mi Calm Calm - 0.28 in Rain Light Rain
11:15 PM 71.6 °F - 69.8 °F 94% 29.99 in 8.0 mi Calm Calm - N/A   Scattered Clouds
11:35 PM 71.6 °F - 69.8 °F 94% 30.01 in 7.0 mi ENE 4.6 mph - N/A   Clear
11:55 PM 71.6 °F - 69.8 °F 94% 30.00 in 9.0 mi Calm Calm - N/A   Clear